Showing default

DRO-B, 60058

Orbit data source: Space-Track

DRO-B, 60058 is a Chinese payload satellite in HEO that was launched on Wed, 13 Mar 2024 UTC via a CHANG ZHENG 2C/YZ-1S launch vehicle from the Xichang Space Center, China (XSC). Payload-class satellites include a variety of spacecraft equipped with specific instruments for various scientific and technological missions. These include communications satellites like Starlink; space stations such as the ISS; scientific satellites like the Hubble; Earth observation satellites from companies like Planet Labs, Umbra, and HawkEye 360; GPS; miniature CubeSats for education and research; and military/defense satellites.

Loading next visibility...
Identifier
60058, 2024-048D
Orbit
HEO
Country
Flag of CNCN / PRC
Related business
Manufacturer
SECM
Mission
Operational Civil Planetary
Bus & Motor
DRO, Unknown motor
Mass
~400 kg wet, ~400 kg dry
Launch date (UTC)
2024-03-13 (2 years ago)
Launch vehicle
CHANG ZHENG 2C/YZ-1S
Launch site
Xichang Space Center, China (XSC)
Object type
Payload
Rocket body
Debris
Shape & HBR
Cyl, 0.4 m
Radar Cross Section
0.412 m²

Expand to show TLE details & history
Last TLE update: 1 week ago

TLE from 1 week ago
0 DRO-B
1 60058U 24048D   26164.87675926 -.00004303  00000-0  00000-0 0  9997
2 60058  27.0261 355.6534 3065471 257.5663 168.8651  0.05320311   134
Epoch: 2026-06-13T21:02Z
TLE epoch observation values (Epoch: 2026-06-13T21:02:32.000Z)
Latitude
25.5717°
Longitude
-152.04353°
Altitude
391,924.629 km
Speed
0.817 km/s
True Right ascension
04h 23m 06s
True Declination
25° 34' 10"
Sunlit
Object was in daylight at epoch
Visualization orbit readout
Latitude
Unknown
Longitude
Unknown
Altitude
Unknown
Speed
Unknown
Apparent Right ascension
Unknown
Apparent Declination
Unknown
Sunlit
N/A
Visualization observer readout
Local Sidereal Time
07:14:18
Azimuth
Unknown
Elevation
Unknown
Doppler factor
Unknown
Orbital elements
Apogee altitude
383,775.808 km
Perigee altitude
200,696.973 km
Semi-major axis
298,614.528 km
Eccentricity
0.30655
Inclination
27.0261°
RAAN
355.6534°
Arg. of periapsis
257.5663°
True anomaly
173.78044°
Mean anomaly
168.8651°
Eccentric anomaly
171.47023°
Mean motion
0.0133 °/min
Orbital period
27,066.1 mins
BSTAR
0
Loading maneuver chart data...
Computing Atmospheric mass density...
Loading historical data...
Loading historical data...
Loading historical data...
Loading historical data...
Loading historical data...
Loading historical data...
Loading historical data...
Other satellites on launch #48 in the year 2024 (2024-03-13 UTC)

Documentation

Showing up to 5 results
|